User: anonymous   Login
Location: Luxembourg
(49.6117°N, 6.1300°E)
Time: 18:55:00
(UTC+01:00)
Language:

DOVE 4 - Orbit

View from above orbital plane
View from above orbital plane
View from above satellite
View from above satellite

Ground track
Ground track

The orbit data is extracted from the following two-line orbital elements,

1 39430U 13066Q   19083.49845995  .00000150  00000-0  35977-4 0  9990
2 39430  97.7357  45.7819 0151542 165.4752 195.0861 14.59209778284030
Epoch (UTC): 24 March 2019 11:57:46
Eccentricity: 0.0151542
inclination: 97.7357°
perigee height: 588 km
apogee height: 803 km
right ascension of ascending node: 45.7819°
argument of perigee: 165.4752°
revolutions per day: 14.59209778
mean anomaly at epoch: 195.0861°
orbit number at epoch: 28403

The dashed part of the orbit path shows where the satellite is in the earth's shadow,  

DLR